Flight Information

DEPARTURE
PORTLAND, OR
Elevation:
30
Runways:
10L/28R - 9825x150 - ASPH-E
10R/28L - 11000x150 - CONC-G
3/21 - 6000x150 - ASPH-E
ATIS:
128.35 503-493-7557
Clearance Delivery:
120.125
Ground:
121.9
Tower:
PORTLAND TOWER
123.775 RWY 03-21, 10R-28L
118.7 RWY 10L-28R
DESTINATION
,
Elevation:
TPA:
1000 (est.)


6728.6 NM65° True-19° Var46° HDG

Flight Plan:
(click to file on line)

1. Type
2. Aircraft Identification
3. Aircraft Type / Special Equipment
4. True Airspeed
kts
5. Departure Airport
(ICAO code)
6. Arriving Airport
(ICAO code)
7. Cruising Altitude
ft
8. Alternate Airport
(ICAO code)
9. Route of Flight
10. Remarks


00:00:00 Departure ATIS: Destination ATIS:

Clearance Limit:
Route:
Altitude: Expect in minutes
Frequency:
Transponder: (7500 Hijack / 7600 Lost Comms / 7700 Emergency)


KPDX 221453Z 00000KT 10SM BKN100 05/03 A2998 RMK AO2 SLP150 T00500028 55005
Time: 2021-01-22T14:53:00Z
1611327671
Winds: calm
Visibility: 10.0 sm
Clouds (AGL): BKN 10000
Temperature: 5.0 C
Dew Point: 2.8 C
Pressure: 29.97933 in Hgbr


Notes:

Data extracted from FAA Digital Chart Supplement. Effective: 0901Z Thursday, Dec 31, 2020 to 0901Z Thursday, Jan 28, 2021
Current ATIS data is provided courtisy of PilotEdge.